Location: Krakow
(50.0830°N, 19.9170°E)
Time: 11:52:37
(UTC+02:00)

Tiros 1 - Pass Details

Date: 09 February 2023
Orbit: 627 x 662 km, 48.4° (Epoch: 26 March)

Event Time Altitude Azimuth Distance (km) Brightness Sun altitude
Rises 02:26:06 0° 279° (W) 2,918 - -43.3°
Reaches altitude 10° 02:28:27 10° 274° (W) 2,013 - -43.0°
Maximum altitude 02:32:55 49° 200° (SSW) 821 - -42.4°
Drops below altitude 10° 02:37:25 10° 126° (SE) 2,026 - -41.8°
Sets 02:39:48 0° 121° (ESE) 2,939 - -41.4°
